Charleston, SC

3:17 PM EST on February 20, 2018 (GMT -0500)
Charleston Air Force Base-International

Weather History for KCHS - March, 2013

Change the Weather History Date:

Tuesday, March 26, 2013

  Actual Average Record
Temperature  
Mean Temperature 44 °F 60 °F  
Max Temperature 52 °F 72 °F 86 °F (1938)
Min Temperature 35 °F 49 °F 24 °F (1947)
Degree Days  
Heating Degree Days 21 6  
Month to date heating degree days 329 214  
Since 1 July heating degree days 1714 1850  
Cooling Degree Days 0 1  
Month to date cooling degree days 8 24  
Year to date cooling degree days 29 31  
Moisture  
Dew Point 24 °F    
Average Humidity 49    
Maximum Humidity 64    
Minimum Humidity 33    
Precipitation  
Precipitation 0.00 in 0.13 in 1.11 in (1978)
Month to date precipitation 4.01 3.10  
Year to date precipitation 14.83 9.77  
Snow  
Snow 0.00 in 0.00 in - ()
Month to date snowfall 0.0  
Since 1 July snowfall T 0.5  
Snow Depth 0.00 in    
Sea Level Pressure  
Sea Level Pressure 30.06 in    
Wind  
Wind Speed 11 mph (WNW)    
Max Wind Speed 21 mph    
Max Gust Speed 30 mph    
Visibility 10 miles    
Events      
T = Trace of Precipitation, MM = Missing Value Source: NWS Daily Summary

Daily Weather History Graph

Daily Weather History Graph

Search for Another Location

Airport or City:

Trip Planner

Search our weather history database for the weather conditions in past years. The results will help you decide how hot, cold, wet, or windy it might be!

Date:

Astronomy

Mar. 26, 2013 Rise Set
Actual Time 7:15 AM EDT 7:36 PM EDT
Civil Twilight 6:50 AM EDT 8:00 PM EDT
Nautical Twilight 6:22 AM EDT 8:29 PM EDT
Astronomical Twilight 5:52 AM EDT 8:59 PM EDT
Moon 7:10 PM EDT (3/26) 6:30 AM EDT (3/26)
Length of Visible Light 13h 10m
Length of Day
12h 20m
Waxing Gibbous, 99% of the Moon is Illuminated
Mar 26
Waxing Gibbous
Mar 27
Full
Apr 3
Last Quarter
Apr 10
New
Apr 18
First Quarter

Hourly Weather History & Observations

Time (EDT) Temp. Windchill Dew Point Humidity Pressure Visibility Wind Dir Wind Speed Gust Speed Precip Events Conditions
12:56 AM 42.1 °F 35.2 °F 21.9 °F 45% 29.99 in 10.0 mi WNW 12.7 mph - N/A   Clear
1:56 AM 39.9 °F 33.9 °F 24.1 °F 53% 30.00 in 10.0 mi West 9.2 mph - N/A   Clear
2:56 AM 39.0 °F 32.3 °F 21.9 °F 50% 30.00 in 10.0 mi West 10.4 mph - N/A   Clear
3:56 AM 37.9 °F 31.5 °F 23.0 °F 55% 30.00 in 10.0 mi West 9.2 mph - N/A   Clear
4:56 AM 37.0 °F 31.0 °F 23.0 °F 57% 29.99 in 10.0 mi West 8.1 mph - N/A   Clear
5:56 AM 36.0 °F 29.6 °F 23.0 °F 59% 30.00 in 10.0 mi West 8.1 mph - N/A   Clear
6:56 AM 35.1 °F 30.1 °F 24.1 °F 64% 30.02 in 10.0 mi West 5.8 mph - N/A   Clear
7:56 AM 36.0 °F 29.0 °F 24.1 °F 62% 30.03 in 10.0 mi West 9.2 mph - N/A   Clear
8:56 AM 39.0 °F 31.4 °F 25.0 °F 57% 30.05 in 10.0 mi West 12.7 mph 19.6 mph N/A   Clear
9:56 AM 42.1 °F 35.2 °F 25.0 °F 51% 30.05 in 10.0 mi WNW 12.7 mph 20.7 mph N/A   Clear
10:56 AM 46.0 °F 40.6 °F 25.0 °F 44% 30.04 in 10.0 mi WNW 11.5 mph 18.4 mph N/A   Clear
11:56 AM 48.0 °F - 24.1 °F 39% 30.04 in 10.0 mi NW 13.8 mph 18.4 mph N/A   Scattered Clouds
12:56 PM 48.9 °F - 24.1 °F 38% 30.03 in 10.0 mi WNW 17.3 mph 20.7 mph N/A   Scattered Clouds
1:56 PM 48.9 °F - 24.1 °F 38% 30.03 in 10.0 mi WNW 16.1 mph 25.3 mph N/A   Mostly Cloudy
2:56 PM 50.0 °F - 25.0 °F 38% 30.04 in 10.0 mi WNW 12.7 mph - N/A   Mostly Cloudy
3:56 PM 50.0 °F - 23.0 °F 35% 30.04 in 10.0 mi NW 18.4 mph 29.9 mph N/A   Mostly Cloudy
4:56 PM 50.0 °F - 24.1 °F 36% 30.05 in 10.0 mi NW 12.7 mph 20.7 mph N/A   Mostly Cloudy
5:56 PM 50.0 °F - 23.0 °F 35% 30.07 in 10.0 mi NW 18.4 mph 27.6 mph N/A   Mostly Cloudy
6:56 PM 50.0 °F - 24.1 °F 36% 30.09 in 10.0 mi NW 10.4 mph - N/A   Scattered Clouds
7:56 PM 48.0 °F - 24.1 °F 39% 30.12 in 10.0 mi WNW 9.2 mph - N/A   Partly Cloudy
8:56 PM 46.0 °F 42.5 °F 26.1 °F 46% 30.14 in 10.0 mi West 6.9 mph - N/A   Mostly Cloudy
9:56 PM 44.1 °F 40.1 °F 27.0 °F 51% 30.17 in 10.0 mi West 6.9 mph - N/A   Partly Cloudy
10:56 PM 42.1 °F 37.7 °F 28.0 °F 58% 30.19 in 10.0 mi West 6.9 mph - N/A   Clear
11:56 PM 41.0 °F 36.4 °F 28.0 °F 60% 30.19 in 10.0 mi West 6.9 mph - N/A   Clear